Accueil
METAR-TAF:

METAR-TAF

Aéroports :

Aéroport de Laval - Entrammes

Laval, France

latitude: 48-01-56N, longitude: 000-44-34W, altitude: 101 m

Observation

Le bulletin a été fait il y a 17 minutes, à 19:30 UTC
Vent 6 kt de nord/nord-est
Température 11°C
Humidité 82%
Pression 1029 hPa
Visibilité: 7000 m

METAR: LFOV 201930Z AUTO 03006KT 7000 NSC 11/08 Q1029

Heure: 21:47 (19:47 UTC)


TAF: absent

Observations et prévisions météorologiques de plus de 4000 aéroports (messages METAR et TAF).

Les stations disponibles sont représentées par des disques jaunes et rouges sur la carte.

Passer la souris dessus pour voir le nom de la station.

Cliquer dessus pour voir les observations et prévisions météorologiques.

Pour changer de carte: cliquez sur les boutons verts avec une croix noire pour zoomer, sur le bouton vert avec un tiret pour effectuer un zoom arrière, ou sur les flèches vertes pour les cartes adjacentes.


METAR-TAF: